GW5361 Weather Reports


time (UTC)temp
C
wind
direction
speed
KPH
gust
KPH
rain 1hr
cm
rain 24hr
cm
rain mn
cm
humidity
%
barometer
mb
20260508020504 16 304 1.6 8.0 0.00 0.15 0.10 43 1012.7
20260508020018 16 288 0.0 4.8 0.00 0.15 0.10 41 1012.6
20260508015506 16 336 1.6 4.8 0.00 0.15 0.10 40 1012.6
20260508015006 17 316 0.0 6.4 0.00 0.15 0.10 39 1012.7
20260508014523 17 321 0.0 6.4 0.00 0.15 0.10 38 1012.6
20260508014010 17 291 1.6 8.0 0.00 0.15 0.10 36 1012.6
20260508013504 17 301 1.6 9.7 0.00 0.15 0.10 36 1012.6
20260508013010 17 259 1.6 9.7 0.00 0.15 0.10 35 1012.6
20260508012502 17 228 1.6 9.7 0.00 0.15 0.10 36 1012.5
20260508012002 17 258 1.6 9.7 0.00 0.15 0.10 34 1012.5
20260508011509 18 187 3.2 9.7 0.00 0.15 0.10 34 1012.5
20260508011003 18 285 1.6 16.1 0.00 0.15 0.10 32 1012.6
20260508010503 18 232 4.8 16.1 0.00 0.15 0.10 33 1012.5
20260508010016 18 241 3.2 9.7 0.00 0.15 0.10 33 1012.4
20260508005507 18 227 4.8 11.3 0.00 0.15 0.10 32 1012.5
20260508005007 18 227 4.8 11.3 0.00 0.15 0.10 32 1012.6
20260508004536 18 242 4.8 9.7 0.00 0.15 0.10 33 1012.6
20260508004007 18 272 3.2 8.0 0.00 0.15 0.10 32 1012.7
20260508003508 18 311 1.6 9.7 0.00 0.15 0.10 32 1012.7
20260508003023 17 245 4.8 19.3 0.00 0.15 0.10 32 1012.7
20260508002509 17 221 6.4 19.3 0.00 0.15 0.10 35 1012.7
20260508002003 17 212 4.8 9.7 0.00 0.15 0.10 34 1012.7
20260508001524 17 300 3.2 9.7 0.00 0.15 0.10 33 1012.7
20260508001002 17 207 1.6 16.1 0.00 0.15 0.10 34 1012.7
20260508000502 17 284 3.2 16.1 0.00 0.15 0.10 35 1012.8
20260508000011 17 260 3.2 12.9 0.00 0.15 0.10 33 1012.6
20260507235509 17 325 3.2 12.9 0.00 0.15 0.10 33 1012.7
20260507235006 17 32 3.2 12.9 0.00 0.15 0.10 32 1012.6
20260507234514 17 350 3.2 14.5 0.00 0.15 0.10 32 1012.6
20260507234007 17 261 1.6 16.1 0.00 0.15 0.10 33 1012.6
20260507233508 18 53 4.8 16.1 0.00 0.15 0.10 31 1012.7
20260507233022 18 272 4.8 12.9 0.00 0.15 0.10 32 1012.7
20260507232512 18 5 3.2 14.5 0.00 0.15 0.10 33 1012.6
20260507232009 18 210 4.8 14.5 0.00 0.15 0.10 34 1012.6
20260507231524 18 274 4.8 11.3 0.00 0.15 0.10 34 1012.6
20260507231009 18 219 3.2 11.3 0.00 0.15 0.10 35 1012.7
20260507230504 18 231 4.8 12.9 0.00 0.15 0.10 34 1012.8
20260507230008 18 285 4.8 12.9 0.00 0.15 0.10 33 1012.8
20260507225502 18 199 4.8 14.5 0.00 0.15 0.10 33 1012.7
20260507225007 18 270 3.2 14.5 0.00 0.15 0.10 35 1012.7
20260507224514 18 279 4.8 12.9 0.00 0.15 0.10 34 1012.7
20260507224006 18 283 4.8 14.5 0.00 0.15 0.10 35 1012.7
20260507223505 18 227 3.2 14.5 0.00 0.15 0.10 35 1012.7
20260507223017 18 279 6.4 16.1 0.00 0.15 0.10 35 1012.7
20260507222512 17 261 3.2 16.1 0.00 0.15 0.10 36 1012.7
20260507222006 17 247 4.8 16.1 0.00 0.15 0.10 37 1012.8
20260507221524 17 238 3.2 24.1 0.00 0.15 0.10 39 1012.8
20260507221008 17 299 6.4 24.1 0.00 0.15 0.10 38 1012.9
20260507220512 17 331 4.8 16.1 0.00 0.15 0.10 38 1012.8
20260507220024 17 223 6.4 12.9 0.00 0.15 0.10 36 1012.8
20260507215511 17 300 4.8 14.5 0.00 0.15 0.10 36 1012.9
20260507215008 17 269 4.8 16.1 0.00 0.15 0.10 38 1012.8
20260507214509 17 216 6.4 16.1 0.00 0.15 0.10 37 1012.8
20260507214004 17 224 4.8 14.5 0.00 0.15 0.10 38 1012.9
20260507213507 17 321 4.8 14.5 0.00 0.15 0.10 41 1013.1
20260507213017 17 211 6.4 19.3 0.00 0.15 0.10 40 1013.1
20260507212506 17 272 6.4 19.3 0.00 0.15 0.10 40 1013.2
20260507212009 17 242 1.6 8.0 0.00 0.15 0.10 41 1013.1
20260507211521 17 347 1.6 16.1 0.00 0.15 0.10 41 1013.3
20260507211008 17 320 4.8 16.1 0.00 0.15 0.10 39 1013.3
20260507210509 18 222 1.6 12.9 0.00 0.15 0.10 41 1013.4
20260507210026 17 257 3.2 16.1 0.00 0.15 0.10 41 1013.5
20260507205508 17 223 6.4 16.1 0.00 0.15 0.10 43 1013.3
20260507205010 17 225 6.4 12.9 0.00 0.15 0.10 40 1013.4
20260507204525 16 216 3.2 17.7 0.00 0.15 0.10 43 1013.3
20260507204009 16 213 4.8 17.7 0.00 0.15 0.10 41 1013.5
20260507203510 17 265 4.8 11.3 0.00 0.15 0.10 43 1013.6
20260507203018 16 22 3.2 16.1 0.00 0.15 0.10 46 1013.6
20260507202508 16 219 4.8 16.1 0.00 0.15 0.10 43 1013.6
20260507202010 15 146 1.6 6.4 0.00 0.15 0.10 47 1013.7
20260507201520 16 200 1.6 12.9 0.00 0.15 0.10 45 1013.7
20260507201009 16 337 1.6 17.7 0.00 0.15 0.10 44 1013.8
20260507200508 16 5 8.0 17.7 0.00 0.15 0.10 43 1013.8
20260507200020 16 227 1.6 16.1 0.00 0.15 0.10 46 1013.8
20260507195508 15 242 1.6 9.7 0.00 0.15 0.10 47 1013.9
20260507195010 15 326 4.8 12.9 0.00 0.15 0.10 49 1013.9
20260507194529 15 338 3.2 14.5 0.00 0.15 0.10 49 1014.1
20260507194012 14 313 3.2 14.5 0.00 0.15 0.10 49 1014.1
20260507193510 14 290 1.6 8.0 0.00 0.15 0.10 51 1014.2
20260507193027 14 252 1.6 8.0 0.00 0.15 0.10 52 1014.1
20260507192511 14 292 3.2 8.0 0.00 0.15 0.10 51 1014.1
20260507192010 14 240 1.6 8.0 0.00 0.15 0.10 50 1014.1
20260507191520 15 310 1.6 8.0 0.00 0.15 0.10 49 1014.1
20260507191010 15 348 3.2 9.7 0.00 0.15 0.10 49 1014.1
20260507190507 15 300 3.2 17.7 0.00 0.15 0.10 51 1014.1
20260507190022 15 13 4.8 17.7 0.00 0.15 0.10 47 1014.1
20260507185511 15 293 1.6 12.9 0.00 0.15 0.10 48 1014.0
20260507185008 15 321 1.6 12.9 0.00 0.15 0.10 49 1014.0
20260507184524 15 331 3.2 14.5 0.00 0.15 0.10 50 1014.1
20260507184010 14 355 4.8 14.5 0.00 0.15 0.10 50 1014.2
20260507183510 14 5 3.2 14.5 0.00 0.15 0.10 52 1014.2
20260507183024 13 233 4.8 12.9 0.00 0.15 0.10 52 1014.2
20260507182013 13 298 1.6 6.4 0.00 0.15 0.10 55 1014.1
20260507181528 13 313 1.6 6.4 0.00 0.15 0.10 57 1014.2
20260507181013 13 296 1.6 6.4 0.00 0.15 0.10 57 1014.3
20260507180512 13 322 3.2 6.4 0.00 0.15 0.10 56 1014.3
20260507180021 13 275 0.0 6.4 0.00 0.15 0.10 59 1014.3
20260507175509 13 240 0.0 6.4 0.00 0.15 0.10 59 1014.4
20260507175008 13 338 1.6 4.8 0.00 0.15 0.10 59 1014.4
20260507174531 13 337 1.6 6.4 0.00 0.15 0.10 61 1014.4
20260507174010 13 286 1.6 6.4 0.00 0.15 0.10 62 1014.5
20260507173510 13 315 1.6 6.4 0.00 0.15 0.10 62 1014.4
20260507173047 12 310 3.2 8.0 0.00 0.15 0.10 60 1014.5
20260507172508 12 355 1.6 8.0 0.00 0.15 0.10 62 1014.5
20260507171528 12 290 0.0 4.8 0.00 0.15 0.10 64 1014.6
20260507171009 12 309 0.0 4.8 0.00 0.15 0.10 63 1014.6
20260507170032 12 329 1.6 8.0 0.00 0.15 0.10 60 1014.5
20260507165514 12 21 3.2 8.0 0.00 0.15 0.10 58 1014.5
20260507165008 13 209 1.6 6.4 0.00 0.15 0.10 63 1014.4
20260507164519 13 198 0.0 6.4 0.00 0.15 0.10 64 1014.4
20260507164007 12 170 0.0 6.4 0.00 0.15 0.10 67 1014.3
20260507163505 12 213 3.2 6.4 0.00 0.15 0.10 69 1014.3
20260507163003 12 202 1.6 4.8 0.00 0.15 0.10 74 1014.3
20260507162505 12 168 0.0 4.8 0.00 0.15 0.10 76 1014.3
20260507162004 11 161 1.6 6.4 0.00 0.15 0.10 79 1014.3
20260507161508 11 167 3.2 6.4 0.00 0.15 0.10 80 1014.4
20260507161003 11 167 1.6 4.8 0.00 0.15 0.10 81 1014.3
20260507160505 10 167 0.0 4.8 0.00 0.15 0.10 82 1014.4
20260507160014 10 166 1.6 4.8 0.00 0.15 0.10 83 1014.4
20260507155515 10 158 0.0 3.2 0.00 0.15 0.10 83 1014.4
20260507155011 10 158 0.0 3.2 0.00 0.15 0.10 83 1014.3
20260507154518 10 76 0.0 1.6 0.00 0.15 0.10 85 1014.3
20260507154003 10 76 0.0 0.0 0.00 0.15 0.10 85 1014.3
20260507153502 10 76 0.0 0.0 0.00 0.15 0.10 85 1014.2
20260507153005 10 76 0.0 0.0 0.00 0.15 0.10 86 1014.2
20260507152503 10 76 0.0 1.6 0.00 0.15 0.10 84 1014.1
20260507152001 10 76 0.0 1.6 0.00 0.15 0.10 84 1014.2
20260507151506 10 76 0.0 1.6 0.00 0.15 0.10 85 1014.3
20260507151003 10 76 0.0 1.6 0.00 0.15 0.10 86 1014.2
20260507150504 10 76 0.0 1.6 0.00 0.15 0.10 85 1014.2
20260507150012 10 76 0.0 1.6 0.00 0.15 0.10 84 1014.2
20260507145506 10 76 0.0 3.2 0.00 0.15 0.10 86 1014.1
20260507145007 10 76 0.0 3.2 0.00 0.15 0.10 85 1014.1
20260507144514 9 43 0.0 1.6 0.00 0.15 0.10 88 1014.1
20260507144006 8 5 0.0 1.6 0.00 0.15 0.10 89 1014.1
20260507143510 8 5 0.0 1.6 0.00 0.15 0.10 90 1014.1
20260507143018 7 306 0.0 1.6 0.00 0.15 0.10 91 1014.1
20260507142502 7 306 0.0 1.6 0.00 0.15 0.10 92 1014.0
20260507142007 7 306 0.0 1.6 0.00 0.15 0.10 93 1014.0
20260507141504 6 306 0.0 1.6 0.00 0.15 0.10 93 1014.0
20260507140006 6 342 0.0 1.6 0.00 0.15 0.10 94 1013.8
20260507135003 6 336 0.0 0.0 0.00 0.15 0.10 93 1013.8
20260507134511 6 336 0.0 0.0 0.00 0.15 0.10 93 1013.8
20260507134006 6 336 0.0 0.0 0.00 0.15 0.10 94 1013.8
20260507133019 5 336 0.0 1.6 0.00 0.15 0.10 93 1013.8
20260507132512 5 336 0.0 1.6 0.00 0.15 0.10 93 1013.8
20260507132008 5 350 0.0 1.6 0.00 0.15 0.10 93 1013.7
20260507131521 5 350 0.0 1.6 0.00 0.15 0.10 93 1013.6
20260507131004 5 350 0.0 0.0 0.00 0.15 0.10 93 1013.6
20260507130006 5 352 0.0 3.2 0.00 0.15 0.10 92 1013.5
20260507125005 5 337 0.0 0.0 0.00 0.15 0.10 93 1013.6
20260507124508 5 337 0.0 3.2 0.00 0.15 0.10 92 1013.6
20260507124006 6 337 0.0 4.8 0.00 0.15 0.10 92 1013.5
20260507123014 6 333 3.2 6.4 0.00 0.15 0.10 92 1013.3
20260507122009 6 346 1.6 4.8 0.00 0.15 0.10 92 1013.3
20260507121517 6 323 1.6 3.2 0.00 0.15 0.10 93 1013.2
20260507121006 6 328 0.0 3.2 0.00 0.15 0.10 93 1013.2
20260507120021 6 336 1.6 4.8 0.00 0.15 0.10 92 1013.2
20260507114505 6 286 0.0 4.8 0.00 0.15 0.10 92 1013.2
20260507113505 7 261 1.6 6.4 0.00 0.15 0.10 91 1013.2
20260507113013 7 336 0.0 6.4 0.00 0.15 0.10 91 1013.2
20260507110020 6 348 1.6 3.2 0.00 0.15 0.10 93 1013.2
20260507105509 6 338 1.6 3.2 0.00 0.15 0.10 93 1013.2
20260507105008 6 344 0.0 3.2 0.00 0.15 0.10 93 1013.2
20260507104523 6 336 1.6 3.2 0.00 0.15 0.10 94 1013.0
20260507104011 6 347 0.0 3.2 0.00 0.15 0.10 93 1013.0
20260507103512 6 342 1.6 4.8 0.00 0.15 0.10 93 1012.9
20260507103030 6 350 1.6 4.8 0.00 0.15 0.10 93 1012.9
20260507102508 6 352 0.0 3.2 0.00 0.15 0.10 93 1012.9
20260507101534 6 360 0.0 1.6 0.00 0.15 0.10 93 1013.0
20260507101011 6 360 0.0 1.6 0.00 0.15 0.10 93 1013.0
20260507100506 6 360 0.0 3.2 0.00 0.15 0.10 93 1013.0
20260507100022 6 360 0.0 3.2 0.00 0.15 0.10 92 1012.8
20260507095507 6 360 0.0 3.2 0.00 0.15 0.10 92 1012.8
20260507095007 6 360 0.0 3.2 0.00 0.15 0.10 92 1012.8
20260507094526 6 350 0.0 1.6 0.00 0.15 0.10 92 1012.7
20260507094013 6 349 0.0 1.6 0.00 0.15 0.10 92 1012.7
20260507093509 7 349 0.0 1.6 0.00 0.15 0.10 92 1012.7
20260507093025 7 349 0.0 4.8 0.00 0.15 0.10 92 1012.7
20260507092509 7 349 0.0 4.8 0.00 0.15 0.10 92 1012.7
20260507092008 7 351 1.6 3.2 0.00 0.15 0.10 92 1012.7
20260507091531 7 355 0.0 3.2 0.00 0.15 0.10 92 1012.7
20260507091011 7 355 1.6 4.8 0.00 0.15 0.10 92 1012.7
20260507090510 7 342 0.0 4.8 0.00 0.15 0.10 92 1012.7
20260507090028 7 349 1.6 3.2 0.03 0.15 0.10 91 1012.6
20260507085510 8 14 1.6 3.2 0.05 0.15 0.10 90 1012.7
20260507084521 8 46 0.0 1.6 0.05 0.15 0.10 91 1012.7
20260507084007 8 46 0.0 3.2 0.05 0.15 0.10 90 1012.7
20260507082010 8 215 0.0 3.2 0.10 0.15 0.10 89 1012.7
20260507081527 8 215 0.0 4.8 0.10 0.15 0.10 89 1012.6
20260507081009 8 215 1.6 4.8 0.10 0.15 0.10 89 1012.7
20260507080511 8 5 0.0 3.2 0.10 0.15 0.10 88 1012.5
20260507080026 9 19 0.0 6.4 0.08 0.13 0.08 87 1012.6
20260507075510 9 28 0.0 6.4 0.05 0.10 0.05 85 1012.6
20260507075012 9 13 0.0 4.8 0.05 0.10 0.05 85 1012.8
20260507074527 10 317 0.0 3.2 0.05 0.10 0.05 84 1012.4
20260507074010 9 292 1.6 3.2 0.05 0.10 0.05 83 1012.5
20260507073021 9 346 1.6 4.8 0.00 0.05 0.00 82 1011.9
20260507072508 9 90 0.0 0.0 0.00 0.05 0.00 81 1011.9
20260507072008 10 90 0.0 3.2 0.00 0.05 0.00 77 1011.8
20260507071524 10 90 0.0 3.2 0.00 0.05 0.00 77 1011.7
20260507071010 9 90 0.0 3.2 0.00 0.05 0.00 78 1011.7
20260507070512 9 180 0.0 3.2 0.00 0.05 0.00 79 1011.6
20260507070038 10 180 0.0 1.6 0.00 0.05 0.00 76 1011.5
20260507065513 10 180 0.0 1.6 0.00 0.05 0.00 75 1011.6
20260507065013 10 180 0.0 3.2 0.00 0.05 0.00 73 1011.6
20260507064516 10 180 0.0 4.8 0.00 0.05 0.00 72 1011.6
20260507063020 12 205 1.6 4.8 0.00 0.05 0.00 61 1011.4
20260507062010 12 200 1.6 4.8 0.00 0.05 0.00 63 1011.3
20260507061523 12 311 0.0 4.8 0.00 0.05 0.00 62 1011.3
20260507061011 12 292 0.0 3.2 0.00 0.05 0.00 62 1011.4
20260507060508 12 288 0.0 4.8 0.00 0.05 0.00 62 1011.4
20260507060024 12 317 0.0 6.4 0.00 0.05 0.00 62 1011.5
20260507055508 11 339 3.2 6.4 0.00 0.05 0.05 61 1011.5
20260507055009 11 325 0.0 4.8 0.00 0.05 0.05 62 1011.4
20260507054527 11 309 0.0 4.8 0.00 0.05 0.05 63 1011.4
20260507054008 12 302 1.6 6.4 0.00 0.05 0.05 62 1011.3
20260507053511 11 311 0.0 6.4 0.00 0.05 0.05 64 1011.4
20260507052007 11 13 0.0 4.8 0.00 0.05 0.05 69 1011.4
20260507051520 11 278 0.0 4.8 0.00 0.05 0.05 68 1011.4
20260507051009 11 339 1.6 4.8 0.00 0.05 0.05 69 1011.5
20260507050029 12 288 1.6 8.0 0.00 0.05 0.05 67 1011.3
20260507045509 12 295 1.6 8.0 0.00 0.05 0.05 67 1011.3
20260507045009 11 265 1.6 6.4 0.00 0.05 0.05 69 1011.3
20260507044524 11 267 1.6 6.4 0.00 0.05 0.05 74 1011.4
20260507044015 11 288 1.6 6.4 0.00 0.05 0.05 75 1011.5
20260507043510 11 296 1.6 4.8 0.03 0.05 0.05 78 1011.5
20260507043026 11 360 1.6 4.8 0.05 0.05 0.05 80 1011.6
20260507042511 11 244 0.0 4.8 0.05 0.05 0.05 76 1011.6
20260507042014 11 309 1.6 4.8 0.05 0.05 0.05 79 1011.6
20260507041528 11 317 1.6 4.8 0.05 0.05 0.05 79 1011.7
20260507041008 11 221 1.6 4.8 0.05 0.05 0.05 80 1011.7
20260507040023 11 336 0.0 6.4 0.05 0.05 0.05 78 1011.5
20260507035508 11 330 3.2 6.4 0.05 0.05 0.05 78 1011.5
20260507034524 12 223 1.6 8.0 0.05 0.05 0.05 73 1011.4
20260507034007 12 210 1.6 8.0 0.05 0.05 0.05 74 1011.6
20260507033507 13 323 1.6 6.4 0.03 0.03 0.03 67 1011.5
20260507033030 13 288 1.6 8.0 0.00 0.00 0.00 61 1011.5
20260507032513 14 211 1.6 14.5 0.00 0.00 0.00 58 1011.3
20260507032017 13 248 6.4 14.5 0.00 0.00 0.00 56 1011.0
20260507031537 13 236 1.6 3.2 0.00 0.00 0.00 61 1011.0
20260507031014 13 270 0.0 3.2 0.00 0.00 0.00 62 1010.9
20260507030512 13 315 0.0 3.2 0.00 0.00 0.00 61 1010.8
20260507030031 13 315 0.0 3.2 0.00 0.00 0.00 63 1010.8
20260507025008 14 342 0.0 4.8 0.00 0.00 0.00 57 1010.8
20260507023507 16 319 0.0 3.2 0.00 0.00 0.00 47 1010.9
20260507023026 16 276 0.0 3.2 0.00 0.00 0.00 46 1010.8
20260507022509 16 276 0.0 3.2 0.00 0.00 0.00 43 1010.8
20260507022011 17 212 0.0 6.4 0.00 0.00 0.00 43 1010.9
20260507021525 17 329 0.0 11.3 0.00 0.00 0.00 42 1010.9
20260507021008 17 321 1.6 11.3 0.00 0.00 0.00 41 1010.9